Погода Николо-Полома

Погода Николо-Полома : погода сейчас, прогноз погоды и архив. Всё, что Вы хотите узнать о погоде Николо-Полома!

Поиск расширенной информации на нашем сайте:

Другие новости

Новости СМИ2

Главная страница сайта

Новости сайта

03.07.2017

Напоминаем, что на нашем специализированном сайте Метеоцентр.Азия вы можете получить высокодетализированные автоматические прогнозы погоды по пунктам России, СНГ и мира в авиационном формате (включающие направление и скорость ветра, видимость, явления погоды, количество и форму облачности, нижнюю и верхнюю границу облачности).

Рекомендуем: Туалетная Бумага

Погода Николо-Полома - сегодня

Время (UTC), дата Ветер
(°,м/с) 
Видим.   Явления Облачность Т
(°С)
Тd
(°С)
f(%) Тe
(°С)
Pmin
(гПа)
dP
(гПа)
Po
(мм)
O2
(г/м3)
Тmin Tmax R s Состояние
почвы
06 10.12.17 130 (ЮВ) 7000 м  дымка  10/10 600 м 
[Sc]
-5.3 -5.7 97 -7  1018.6  0.4  750  309           
09 10.12.17 140 (ЮВ) 9000 м  дымка  10/10 600 м 
[Sc]
-4.4 -5 96 -6  1018.8  0.3  750  308           
12 10.12.17 130 (ЮВ) 9000 м  дымка  10/10 600 м 
[Sc]
-3.8 -4.3 96 -5  1018.2  -0.6  749  307           
15 10.12.17 150 (ЮВ) 4000 м  дымка  10/10 600 м 
[Sc]
-3.6 -3.9 98 -6  1018.2  -0.6  749  306    -3.6       
18 10.12.17 130 (ЮВ) 4000 м  дымка  10/10 600 м 
[Sc]
-3.9 -4.2 98 -6  1017.8  -0.4  749  307           
21 10.12.17 140 (ЮВ) 4000 м  дымка  10/10 600 м 
[Sc]
-3.5 -3.8 98 -6  1017.7  749  306           
00 11.12.17 130 (ЮВ) 4000 м  дымка  10/10 300 м 
[Sc]
-3.2 -3.4 99 -6  1016.8  -0.9  748  305           
03 11.12.17 140 (ЮВ) 4{10}  4000 м  позёмок  10/10 600 м 
[Sc]
-3.1 -3.4 98 -6  1016.8  0.1  748  305  -3.9      34  равномерный
сухой снег
100% 
06 11.12.17 130 (ЮВ) 9000 м  дымка  10/10 600 м 
[Sc]
-3.2 -3.6 97 -6  1017.3  0.4  749  306           
09 11.12.17 130 (ЮВ) 9000 м  дымка  10/10 600 м 
[Sc]
-2.9 -3.5 96 -6  1017  -0.2  749  305           
12 11.12.17 130 (ЮВ) 9000 м  дымка  10/10 600 м 
[Sc]
-2.4 -3.1 95 -5  1016.3  -0.6  748  304           
15 11.12.17 140 (ЮВ) 4000 м  дымка  10/10 600 м 
[Sc]
-2.1 -2.5 97 -5  1015.8  -0.5  748  304    -2       
18 11.12.17 130 (ЮВ) 4000 м  слаб. снег  10/8 300 м средняя 
[Frnb|As op]
-2.1 -2.7 96 -5  1015.7  0.1  748  304           
21 11.12.17 130 (ЮВ) 4000 м  дымка{снег}  10/10 300 м 
[Sc]
-2.5 -3.1 96 -5  1015.8  748  304           
00 12.12.17 110 (В) 4000 м  дымка{снег}  10/10 300 м 
[Sc]
-2.6 -3 97 -5  1015.8  748  304           
03 12.12.17 120 (ЮВ) 4000 м  слаб. снег  10/10 300 м 
[Sc]
-2.2 -2.7 96 -4  1016.4  0.6  748  304  -2.6    33  равномерный
сухой снег
100% 
06 12.12.17 130 (ЮВ) 9000 м  слаб. снег  10/10 600 м 
[Sc]
-1.4 -1.9 96 -3  1017.2  0.8  749  303           
09 12.12.17 130 (ЮВ) 9000 м  слаб. снег  10/10 600 м 
[Sc]
-0.8 -1.5 95 -2  1018.3  1.1  750  303           
12 12.12.17 140 (ЮВ) 9000 м  слаб. снег  10/10 600 м 
[Sc]
-0.9 -2.3 90 -3  1019  0.6  750  303           
15 12.12.17 140 (ЮВ) 4000 м  дымка{снег}  10/10 600 м 
[Sc]
-1.2 -2.3 92 -3  1020  751  304    -0.6  0.2     
18 12.12.17 150 (ЮВ) 4000 м  {снег}  10/10 600 м 
[Sc]
-1.4 -2.9 89 -4  1019.5  -0.5  750  304           
21 12.12.17 140 (ЮВ) 4000 м  дымка  10/10 600 м 
[Sc]
-1.5 -2.7 92 -4  1017.9  -1.5  749  304           
00 13.12.17 160 (Ю) 4000 м  дымка  10/10 600 м 
[Sc]
-1.4 -2.2 94 -5  1016.2  -1.7  748  303           
03 13.12.17 150 (ЮВ) 5{11}  4000 м  позёмок  10/10 600 м 
[Sc]
-1.2 -1.7 96 -4  1013.4  -2.8  746  302  -1.6      33  равномерный
сухой снег
100% 
06 13.12.17 160 (Ю) 5{11}  8000 м  слаб. снег  10/8 300 м средняя 
[Frnb|As op]
-0.6 -0.9 98 -4  1011.1  -2.2  744  301           
Время (UTC), дата Ветер
(°,м/с) 
Видим.   Явления Облачность Т
(°С)
Тd
(°С)
f(%) Тe
(°С)
Pmin
(гПа)
dP
(гПа)
Po
(мм)
O2
(г/м3)
Тmin Tmax R s Состояние
почвы

Для получения пояснительной информации подведите курсор к названию столбца.

ПОГОДА Николо-Полома - архив

Всё, что Вы хотите узнать о погоде Николо-Полома - удобно и подробно!

Выберите нужную дату (начиная с 1 января 2015* года) и нажмите кнопку "Найти".
Будут отображены архивные сводки погоды по пункту Николо-Полома, начиная с указанной даты.


Отображать данные в формате CSV (для использования в таблицах Excel)


Внимание! Наш архив погоды предназначен исключительно для личного некоммерческого использования в познавательных целях. Если Вам необходимы официальные справки о состоянии погоды (для производственных, юридических, коммерческих и т.п. целей), обращайтесь в органы Росгидромета.

*Примечание: данная дата относится к архиву по метеостанциям СССР (Россия, СНГ, Балтия).
Архив по метеостанциям Зарубежной Европы и Азии (кроме Китая) хранится 10 дней, по другим регионам земного шара (Китай, Африка, Америка, Австралия, Океания) - 1 день.

Николо-Полома - район местоположения метеостанции


Название, широта, долгота, высота метеостанции:
Николо-Полома 58.3°ш. 43.4°д. 150 м над ур. моря [Российская Федерация]

Дополнительная информация

В oтличие oт бoльшинства пoгoдных сайтoв мы публикуем пoдрoбную метеoинфoрмацию в детальнoм прoфессиoнальнoм фoрмате.

Характеристики температуры и влажнoсти вoздуха измеряются на высoте 2 м в тени вдали oт зданий и деревьев.
Скoрoсть ветра измеряется на высoте 10 м (на урoвне рoста челoвека скoрoсть ветра ниже в 1.5-2 раза). Если метеoстанция нахoдится в гoрoде или в лесу, тo скoрoсть ветра занижена на 2-4 м/с пo сравнению с oткрытым местoм. Скoрoсть ветра над акватoриями крупных рек и oзёр, а также на вершинах хoлмoв на 2-5 м/с выше, чем в oбычных услoвиях.
Атмoсфернoе давление в разных тoчках местнoсти мoжет значительнo oтличаться oт давления на метеoстанции, в зависимoсти oт услoвий рельефа (при пoдъёме на 10 м давление пoнижается примернo на 1 мм рт.ст.).